Location: Sceptre
(50.8619°N, 109.2670°W)
Time: 01:11:51
(UTC+00:00)

Envisat - Pass Details

Date: 02 February 2022
Orbit: 764 x 765 km, 98.2° (Epoch: 22 May)

Event Time Altitude Azimuth Distance (km) Brightness Sun altitude
Rises 11:36:20 0° 20° (NNE) 3,244 6.6 -30.9°
Reaches altitude 10° 11:38:49 10° 28° (NNE) 2,313 5.9 -30.5°
Maximum altitude 11:43:33 38° 96° (E) 1,165 4.3 -29.7°
Drops below altitude 10° 11:48:15 10° 164° (SSE) 2,298 5.5 -29.0°
Sets 11:50:42 0° 173° (S) 3,220 6.2 -28.6°
